Location: Melbourne
(37.8170°S, 144.9670°E)
Time: 16:49:37
(UTC+10:00)

CZ-3 R/B - Visible Passes

Search period start: 03 September 2015 00:00
Search period end: 13 September 2015 00:00
Orbit: 186 x 12332 km, 28.5° (Epoch: 02 September)

Date Brightness Start Highest point End Pass type
(mag) Time Alt. Az. Time Alt. Az. Time Alt. Az.
03 Sep 6.0 00:02:35 10° W 01:52:34 71° NNW 02:32:26 10° ENE visible
03 Sep 5.3 05:35:28 10° WSW 06:21:34 22° WNW 06:34:07 10° NNW visible
03 Sep 6.4 19:10:45 10° NNW 19:50:28 56° NE 21:35:55 10° E visible
03 Sep 6.1 23:30:20 10° W 01:16:37 73° NNW 02:03:32 10° ENE visible
04 Sep 5.3 04:51:00 10° WSW 05:52:18 27° WNW 06:07:25 10° N visible
04 Sep 6.3 18:42:04 10° NNW 19:16:32 51° NE 21:01:26 10° E visible
04 Sep 6.2 22:58:10 10° WNW 00:38:23 75° N 01:33:47 10° ENE visible
05 Sep 5.4 04:07:18 10° WSW 05:22:05 33° NW 05:39:41 10° N visible
05 Sep 6.2 18:13:00 10° NNW 18:42:58 46° NE 20:24:58 10° ESE visible
05 Sep 6.3 22:25:59 10° WNW 23:57:53 76° N 01:03:05 10° ENE visible
06 Sep 5.5 03:24:26 10° WSW 04:50:48 38° NW 05:11:02 10° N visible
06 Sep 6.0 17:43:37 10° N 18:09:38 41° NE 19:46:08 10° ESE visible
06 Sep 6.4 21:53:44 10° WNW 23:15:32 76° N 00:31:23 10° ENE visible
07 Sep 5.6 02:42:43 10° WSW 04:18:19 44° NW 04:41:31 10° NNE visible
07 Sep 5.9 17:13:56 10° N 17:36:27 35° NE 19:04:29 10° ESE visible
07 Sep 6.5 21:21:20 10° WNW 22:32:10 75° N 23:58:35 10° ENE visible
08 Sep 5.7 02:02:10 10° W 03:44:26 50° NW 04:11:09 10° NNE visible
08 Sep 5.8 16:44:04 10° N 17:03:15 29° NE 18:19:32 10° ESE visible
08 Sep 6.6 20:48:44 10° WNW 21:48:49 74° NNE 23:24:33 10° E visible
09 Sep 5.8 01:22:39 10° W 03:08:56 55° NW 03:39:56 10° NNE visible
09 Sep 6.5 20:15:53 10° NW 21:06:16 71° NNE 22:49:10 10° E visible
10 Sep 5.9 00:43:58 10° W 02:31:32 60° NNW 03:07:53 10° NE visible
10 Sep 6.4 19:42:46 10° NW 20:24:52 68° NNE 22:12:12 10° E visible
11 Sep 6.0 00:05:54 10° W 01:51:54 65° NNW 02:34:56 10° NE visible
11 Sep 5.6 05:47:19 10° W 06:20:09 13° WNW 06:28:12 10° NW visible
11 Sep 6.2 19:09:21 10° NW 19:44:36 64° NNE 21:33:25 10° E visible
11 Sep 6.1 23:28:16 10° W 01:09:40 69° NNW 02:01:03 10° NE visible
12 Sep 5.6 04:49:06 10° WSW 05:45:25 19° WNW 06:00:11 10° NNW visible
12 Sep 6.1 18:35:37 10° NW 19:05:18 59° NNE 20:52:27 10° E visible
